Overview Statistics Trail Chart Weather Telemetry Raw packets
 

This is the latest recevied weather packets stored in our database for station/object HB9FHL-13. If no packets are shown the sender has not sent any weather packets the latest 10 day(s).

<< 88 89 90 91 92 93 94 >>
Time Temp. Humidity Pressure Rain* Wind** Luminosity Snow
1788109445 25° C - 1017.8 hPa 0 mm - - -
1788109148 24.44° C - 1015.4 hPa 0 mm - - -
1788109145 24.44° C - 1015.4 hPa 0 mm - - -
1788108847 23.33° C - 1016.4 hPa 0 mm - - -
1788108844 23.33° C - 1016.4 hPa 0 mm - - -
1788108548 23.89° C - 1014.8 hPa 0 mm - - -
1788108544 23.89° C - 1014.8 hPa 0 mm - - -
1788108243 24.44° C - 1015.8 hPa 0 mm - - -
1788107945 23.89° C - 1015.2 hPa 0 mm - - -
1788107941 23.89° C - 1015.2 hPa 0 mm - - -
1788107644 23.89° C - 1016.5 hPa 0 mm - - -
1788107640 23.89° C - 1016.5 hPa 0 mm - - -
1788107343 23.89° C - 1014.9 hPa 0 mm - - -
1788107339 23.89° C - 1014.9 hPa 0 mm - - -
1788107042 24.44° C - 1013.8 hPa 0 mm - - -
1788107039 24.44° C - 1013.8 hPa 0 mm - - -
1788106439 25° C - 1014.8 hPa 0 mm - - -
1788106436 25° C - 1014.8 hPa 0 mm - - -
1788106138 24.44° C - 1018.9 hPa 0 mm - - -
1788106134 24.44° C - 1018.9 hPa 0 mm - - -
1788105837 23.33° C - 1017.5 hPa 0 mm - - -
1788105834 23.33° C - 1017.5 hPa 0 mm - - -
1788105537 24.44° C - 1016.3 hPa 0 mm - - -
1788105533 24.44° C - 1016.3 hPa 0 mm - - -
1788105232 23.89° C - 1018.8 hPa 0 mm - - -

* Rain since midnight (hover to see other rain measurements)
** Current wind speed in m/s (hover to see current wind gust speed)